Location: Arroyo Retuerta
(40.5469°N, 4.3534°W)
Time: 15:41:38
(UTC+00:00)

Daily predictions for brighter satellites

Satellite Brightness Start Highest point End
(mag) Time Altitude Azimuth Time Altitude Azimuth Time Altitude Azimuth
Cosmos 2233 Rocket 4.1 19:57:09 10° S 20:03:29 87° E 20:09:49 10° N
OAO 3 Rocket 3.7 20:00:17 10° WSW 20:04:56 44° S 20:09:38 10° ESE
Ariane Rocket 4.3 20:01:15 10° ESE 20:05:18 25° ENE 20:09:22 10° NNE
Cosmos 1666 4.0 20:02:17 10° NNW 20:05:54 42° W 20:09:27 10° SSW
IRS-1C Rocket 4.3 20:01:32 10° S 20:06:47 77° WSW 20:12:04 10° NNW
Cosmos 1743 4.4 20:04:22 10° NNE 20:06:59 18° ENE 20:09:35 10° ESE
BREEZE-M DEB (TANK) 4.4 20:05:08 10° W 20:08:59 30° NNW 20:11:08 10° NE
Meteor 2-6 Rocket 4.2 20:05:51 10° S 20:11:14 88° W 20:16:45 10° N
Resurs 01 Rocket 2.5 20:09:57 10° SE 20:13:52 33° ENE 20:17:49 10° N
Aureole 1 Rocket 3.0 20:11:29 10° S 20:14:32 32° ESE 20:17:17 10° NE
Cosmos 1515 Rocket 4.3 20:11:41 10° SSE 20:15:35 33° E 20:19:32 10° NNE
CSL-04 Rocket 4.0 20:10:35 10° S 20:15:50 69° WSW 20:21:13 10° NNW
Landsat 7 3.9 20:14:36 10° SSE 20:19:14 62° ENE 20:23:54 10° N
Cosmos 2227 Rocket 2.3 20:15:20 10° NNW 20:21:00 68° ENE 20:26:38 10° SSE
IGS 5A 3.5 20:20:21 10° S 20:24:30 83° WSW 20:28:40 10° NNW
PSLV R/B 4.0 20:20:38 10° NNE 20:24:37 56° E 20:28:34 10° S
Okean-O 3.8 20:21:26 10° S 20:25:39 44° W 20:29:54 10° NNW
Cosmos 1980 Rocket 2.6 20:21:51 10° S 20:27:03 40° ESE 20:32:17 10° NE
Cosmos 1464 Rocket 4.2 20:26:17 10° SSE 20:32:13 50° E 20:38:06 10° NNE
Cosmos 1544 4.5 20:29:51 10° NNW 20:33:08 37° W 20:36:23 10° SSW
Cosmos 2344 3.5 20:27:14 10° SSW 20:34:51 63° ESE 20:42:11 10° NE
IRS-1A Rocket 4.4 20:30:15 10° SSE 20:35:47 62° ENE 20:41:30 10° N
Cosmos 2369 3.8 20:31:09 10° S 20:36:39 57° ESE 20:42:11 10° NNE
ISS -1.1 20:35:14 10° NNW 20:37:23 16° NNE 20:39:33 10° NE
Cosmos 1354 Rocket 4.5 20:32:49 10° S 20:37:41 40° ESE 20:42:36 10° NE
ARGOS Delta rocket 4.2 20:33:03 10° NNE 20:38:31 63° E 20:43:49 10° S
ATLAS 2AS CENTAUR R/B 3.2 20:32:06 10° S 20:39:27 47° ESE 20:46:41 10° NE
SPOT 3 Rocket 4.5 20:36:10 13° SE 20:40:05 32° ENE 20:44:37 10° N
Meteor 2-19 Rocket 4.5 20:35:00 10° N 20:41:13 85° E 20:47:21 10° S
Okean 1 4.4 20:40:11 15° SE 20:42:37 26° E 20:46:01 10° NNE
Cosmos 1536 3.0 20:38:49 10° N 20:42:48 57° E 20:46:10 14° SSE
Cosmos 1486 Rocket 4.1 20:37:46 10° SSW 20:43:04 85° WNW 20:48:23 10° NNE
NOSS 3-4 (A) 4.1 20:38:50 10° SW 20:44:22 56° NW 20:50:22 10° NNE
NOSS 3-4 (C) 4.1 20:38:51 10° SW 20:44:26 56° NW 20:50:27 10° NNE
Cosmos 1697 Rocket 3.1 20:40:09 10° SSW 20:45:47 70° WNW 20:51:28 10° NNE
RESURS DK-1 3.2 20:42:24 10° SSE 20:46:00 29° ESE 20:49:35 10° NE
MOS 1 4.3 20:40:34 10° SSE 20:46:13 84° ENE 20:51:54 10° NNW
H-2A R/B 2.6 20:44:13 10° N 20:48:14 57° WNW 20:52:16 10° SSW
SL-4 R/B 2.2 20:44:28 10° NW 20:49:04 81° NE 20:52:09 19° ESE
Nadezhda 4 Rocket 4.4 20:43:35 10° N 20:49:32 45° ENE 20:54:08 16° SE
ASTRO E2 4.4 20:49:14 10° SW 20:51:52 17° S 20:53:09 15° SSE
Cosmos 836 Rocket 4.5 20:49:25 10° NNW 20:54:42 81° ENE 20:58:51 16° SSE
MetOp-B 4.3 20:52:35 16° SSE 20:56:47 59° ENE 21:02:03 10° N
Cosmos 2297 Rocket 3.3 20:52:27 10° NW 20:57:40 40° WSW 21:02:52 10° S
Cosmos 1184 Rocket 2.6 20:58:56 11° SSW 21:01:52 79° W 21:04:53 10° N
ATLAS 3B R/B 4.3 21:00:54 10° NNW 21:07:02 28° NE 21:13:21 10° E
Cosmos 1503 Rocket 4.1 21:07:07 10° SSW 21:12:22 80° WNW 21:17:44 10° NNE
Cosmos 1975 4.3 21:09:21 10° NNE 21:12:33 22° ENE 21:13:33 20° E
Timation 2 Rocket 4.2 21:05:59 10° NNW 21:12:35 69° ENE 21:17:06 22° SE
Cosmos 389 Rocket 2.7 21:10:31 10° NNW 21:14:01 68° W 21:16:04 23° S
SL-16 R/B 3.2 21:13:28 23° SE 21:14:59 25° ESE 21:19:32 10° NE
ERS-1 Rocket 3.8 21:12:32 22° ESE 21:15:00 35° ENE 21:19:33 10° N
CZ-4B R/B 3.4 21:16:01 10° NNW 21:18:47 27° WNW 21:21:30 10° SW
Cosmos 1933 Rocket 3.8 21:15:40 10° NNW 21:20:07 72° W 21:23:09 20° S
Helios 1A Rocket 3.2 21:19:01 31° SE 21:20:34 49° ENE 21:24:27 10° N
SPOT 1/Viking Rocket 4.0 21:20:16 15° S 21:24:30 58° W 21:29:36 10° NNW
CZ-2C R/B 4.2 21:21:30 10° NNE 21:26:03 43° E 21:27:47 31° SSE
Cosmos 1340 4.4 21:24:44 10° SW 21:28:06 31° WNW 21:31:29 10° N
SL-12 R/B (Aux Motor) 4.0 21:26:25 10° WSW 21:28:33 52° NW 21:28:33 52° NW
SJ 16-02 1.4 21:25:24 10° SSW 21:29:45 78° WNW 21:34:08 10° NNE
Meteor 1-18 Rocket 4.3 21:26:49 23° SSE 21:30:17 59° E 21:35:49 10° NNE
Meteor 2-21 4.4 21:24:38 10° N 21:30:46 78° E 21:34:27 26° SSE
Cosmos 2034 Rocket 4.2 21:28:55 10° SSW 21:35:10 76° W 21:41:34 10° N
Cosmos 2278 3.7 21:29:39 10° SSW 21:35:19 89° WNW 21:41:02 10° NNE
CZ-3 Stage 3 4.0 21:28:25 10° WSW 21:37:25 27° SSW 21:38:09 26° S
Cosmos 2292 Rocket 3.3 21:35:43 10° N 21:38:15 39° ENE 21:38:15 39° ENE
Cosmos 2360 Rocket 3.7 21:40:42 18° E 21:40:42 18° E 21:43:54 10° ENE
BREEZE M DEB (TANK) 4.1 21:37:33 10° NW 21:41:55 74° NNE 21:55:47 15° ESE
Cosmos 1743 4.5 21:39:26 10° NNW 21:42:40 27° W 21:45:11 14° SW
Cosmos 2082 4.1 21:38:21 10° NNW 21:43:51 56° WSW 21:46:52 26° S
Ariane Rocket 4.1 21:40:15 15° SSW 21:44:01 39° W 21:48:47 10° NNW
Meteor 2-21 Rocket 4.4 21:38:29 10° N 21:44:36 74° E 21:47:35 32° SSE
NOSS 2-1 (C) 2.8 21:46:44 65° E 21:46:44 65° E 21:49:39 10° NE
Cosmos 2263 Rocket 2.1 21:41:20 10° NNW 21:46:56 76° ENE 21:49:11 37° SE
OAO 3 Rocket 4.1 21:43:41 10° WSW 21:48:00 30° SSW 21:48:15 30° S
SPOT 5 3.0 21:45:43 35° SSE 21:48:02 83° ENE 21:53:13 10° N
Terra 2.0 21:47:57 40° SE 21:49:21 57° ENE 21:54:02 10° N
Resurs 01 Rocket 3.7 21:47:00 10° SW 21:50:23 22° W 21:53:48 10° NW
Cosmos 1346 Rocket 2.9 21:50:23 53° ESE 21:50:42 55° E 21:54:38 10° NNE
EXPRESS MD2 3.4 21:49:48 10° WNW 21:54:22 47° SW 21:54:25 47° SW
Cosmos 2279 Rocket 4.3 21:53:29 35° SE 21:55:29 46° E 22:01:23 10° NNE
Meteor 2-16 Rocket 4.4 21:50:23 10° N 21:56:35 78° E 21:59:11 37° SSE
NOSS 2-1 (D) 2.7 21:56:58 85° NW 21:56:58 85° NW 22:00:07 10° NNE
Geosat FO 4.3 21:59:13 86° SSE 21:59:17 89° WSW 22:02:38 10° NNW
Cosmos 921 Rocket 4.3 21:56:28 10° NW 22:00:35 35° W 22:02:25 25° SW
USA 215 3.8 21:57:47 10° ENE 22:03:40 34° SE 22:03:42 34° SE
Cosmos 2227 Rocket 4.5 22:01:03 10° WNW 22:04:23 16° W 22:07:44 10° SW
Cosmos 2228 Rocket 4.2 22:06:27 20° SW 22:09:15 43° WNW 22:13:36 10° N
Cosmos 1378 3.9 22:08:55 38° WSW 22:09:46 47° W 22:13:19 10° N
Cosmos 1980 Rocket 4.1 22:06:15 10° WSW 22:11:07 30° WNW 22:16:03 10° N
Cosmos 1898 Rocket 4.5 22:11:50 31° E 22:11:50 31° E 22:16:09 10° NE
ISS -3.0 22:11:25 10° NW 22:14:21 51° N 22:14:21 51° N
SL-24 R/B - RUBIN 2 3.6 22:10:30 10° NNW 22:14:55 71° NE 22:15:32 61° ESE
Spot 2 Rocket 4.1 22:15:53 34° SSW 22:17:39 49° W 22:22:33 10° NNW
Cosmos 2322 Rocket 2.1 22:18:02 51° SSE 22:19:13 64° ESE 22:24:47 10° NNE
Cosmos 2333 Rocket 3.6 22:25:17 23° E 22:25:17 23° E 22:28:44 10° NE
Meteor 2-4 Rocket 4.2 22:22:23 26° SSW 22:25:37 58° WNW 22:31:13 10° N
Cosmos 1844 Rocket 3.7 22:21:23 10° N 22:26:27 34° ENE 22:27:57 29° E
SL-4 R/B 4.2 22:25:18 10° W 22:27:36 16° WSW 22:27:36 16° WSW
Cosmos 1805 4.1 22:25:21 10° N 22:28:28 40° NE 22:28:28 40° NE
ATLAS 2AS CENTAUR R/B 4.0 22:23:07 10° WSW 22:30:30 44° NW 22:37:42 10° NNE
BREEZE-M DEB (TANK) 2.8 22:28:56 10° NW 22:31:29 53° NNE 22:31:53 50° ENE
ARIANE 5 R/B 2.8 22:31:11 59° SW 22:31:38 63° W 22:36:06 10° NNW
Cosmos 1707 Rocket 4.5 22:31:18 34° WSW 22:32:36 44° WNW 22:36:50 10° N
ATLAS CENTAUR R/B 3.7 22:32:30 10° N 22:36:08 20° NE 22:37:50 17° ENE
Cosmos 44 Rocket 3.4 22:35:30 10° NW 22:40:07 58° WSW 22:40:10 58° WSW
Cosmos 1733 3.9 22:38:29 10° N 22:41:23 48° NNE 22:41:23 48° NNE
Cosmos 2219 Rocket 3.6 22:44:48 24° E 22:44:48 24° E 22:48:09 10° NE
Cosmos 1703 Rocket 4.2 22:48:16 45° ENE 22:48:16 45° ENE 22:51:48 10° NNE
Cosmos 1844 4.4 22:44:43 10° NNW 22:50:17 45° ENE 22:51:27 40° E
ERS-1 Rocket 4.5 22:52:31 23° WSW 22:53:48 26° W 22:58:02 10° NW
Meteor 1-4 Rocket 3.8 22:51:16 10° NNW 22:53:35 39° NNW 22:53:35 39° NNW
ATLAS 3B R/B 2.8 22:51:07 10° NW 22:58:34 81° WSW 23:00:38 53° SSE
SL-16 R/B 3.1 22:55:15 21° WSW 22:58:46 44° WNW 23:04:12 10° NNE
Cosmos 2237 4.5 22:58:24 40° SW 23:00:21 64° WNW 23:06:03 10° NNE
Cosmos 1655 Rocket 3.9 22:57:00 10° N 23:03:15 72° E 23:04:10 62° SE
Cosmos 1733 Rocket 4.3 23:00:41 10° NNW 23:04:39 32° W 23:04:49 32° W
CZ-4C R/B 4.2 23:01:52 10° NNW 23:08:19 34° NE 23:14:17 15° E
Geosat 4.0 23:08:44 66° WSW 23:08:44 66° WSW 23:13:43 10° NNW
Meteor 2-10 3.8 23:03:32 10° N 23:08:47 86° W 23:08:49 86° WSW
ERS-2 4.5 23:05:50 10° NE 23:06:52 16° NE 23:06:52 16° NE
Cosmos 1908 Rocket 4.0 23:12:10 10° NNW 23:15:46 58° NW 23:15:46 58° NW
COSMOS 2428 3.7 23:17:53 32° E 23:17:53 32° E 23:22:00 10° NE
Meteor 1-15 Rocket 4.1 23:14:24 10° N 23:20:06 86° E 23:20:25 80° SSE
Cosmos 1470 4.5 23:16:44 10° N 23:19:01 27° NE 23:19:01 27° NE
Cosmos 2242 Rocket 4.0 23:21:24 64° N 23:21:24 64° N 23:25:16 10° N
Cosmos 1726 3.6 23:17:12 10° N 23:19:26 35° N 23:19:26 35° N
ALOS 2 3.5 23:22:00 41° NE 23:22:00 41° NE 23:25:34 10° N
Cosmos 923 Rocket 4.1 23:17:15 10° NNW 23:22:30 67° W 23:22:30 67° W
Cosmos 1937 Rocket 3.4 23:22:46 81° WNW 23:22:47 81° WNW 23:28:05 10° NNE
Cosmos 2360 Rocket 2.5 23:22:24 49° WSW 23:23:37 60° WNW 23:29:13 10° NNE
Terra 4.0 23:26:49 14° W 23:27:27 14° W 23:30:03 10° WNW
Cosmos 2333 4.0 23:29:02 87° S 23:29:07 89° ESE 23:34:47 10° NNE
Cosmos 2263 Rocket 4.3 23:27:28 10° WNW 23:30:05 14° W 23:30:53 13° WSW
Cosmos 1867 4.2 23:33:44 43° ENE 23:33:44 43° ENE 23:37:51 10° NE
Cosmos 2266 Rocket 4.1 23:29:03 10° NNW 23:35:12 62° W 23:35:54 58° SW
Cosmos 2112 Rocket 4.2 23:37:51 10° NNW 23:42:46 66° WNW 23:42:46 66° WNW
Cosmos 1680 Rocket 3.9 23:38:58 10° NNW 23:43:44 55° W 23:43:44 55° W
Meteor 2-17 Rocket 4.3 23:39:08 10° N 23:45:19 75° E 23:45:46 71° ESE
Spot 4 4.3 23:46:20 56° WNW 23:46:20 56° WNW 23:50:28 10° NNW
Cosmos 2278 Rocket 4.1 23:41:59 10° N 23:46:24 22° NE 23:48:51 17° E
USA 215 3.5 23:40:24 10° NE 23:46:54 67° NW 23:51:00 24° WSW
ADEOS Rocket 2.9 23:52:27 63° E 23:52:50 64° ENE 23:58:41 10° N
Meteor 1-22 Rocket 4.3 23:46:56 10° NNW 23:52:54 75° W 23:53:12 74° SW
Cosmos 1818 3.6 23:47:48 10° NW 23:52:45 69° WNW 23:52:45 69° WNW
Iridium 4 Rocket 4.3 23:49:27 10° NNW 23:53:30 38° WNW 23:53:30 38° WNW
